Time,TemperatureF,DewpointF,PressureIn,WindDirection,WindDirectionDegrees,WindSpeedMPH,WindSpeedGustMPH,Humidity,HourlyPrecipIn,Conditions,Clouds,dailyrainin,SoftwareType,DateUTC
2013-09-12 00:00:00,74.7,68.1,30.04,South,169,1.0,4.0,80,0.00,CLR,,0.00,WeatherDisplay:10.37,2013-09-12 04:00:00,
2013-09-12 00:15:00,74.7,67.7,30.01,SSW,202,1.0,3.0,79,0.00,CLR,,0.00,WeatherDisplay:10.37,2013-09-12 04:15:00,
2013-09-12 00:30:00,74.7,67.3,30.01,South,170,1.0,3.0,78,0.00,CLR,,0.00,WeatherDisplay:10.37,2013-09-12 04:30:00,
2013-09-12 00:45:00,74.5,67.2,30.01,SW,232,1.0,5.0,78,0.00,CLR,,0.00,WeatherDisplay:10.37,2013-09-12 04:45:00,
2013-09-12 01:00:00,74.3,67.4,30.01,SE,144,1.0,3.0,79,0.00,CLR,,0.00,WeatherDisplay:10.37,2013-09-12 05:00:00,
2013-09-12 01:15:00,74.3,67.4,30.01,ESE,105,1.0,1.0,79,0.00,CLR,,0.00,WeatherDisplay:10.37,2013-09-12 05:15:00,
2013-09-12 01:30:00,73.9,67.4,30.01,SSW,196,2.0,3.0,80,0.00,CLR,,0.00,WeatherDisplay:10.37,2013-09-12 05:30:00,
2013-09-12 01:45:00,73.8,67.6,30.01,NNE,20,1.0,5.0,81,0.00,CLR,,0.00,WeatherDisplay:10.37,2013-09-12 05:45:00,
2013-09-12 02:00:00,73.8,67.9,30.01,ESE,116,1.0,5.0,82,0.00,CLR,,0.00,WeatherDisplay:10.37,2013-09-12 06:00:00,
2013-09-12 02:15:00,73.4,67.6,30.01,ENE,67,1.0,1.0,82,0.00,CLR,,0.00,WeatherDisplay:10.37,2013-09-12 06:15:00,
2013-09-12 02:30:00,73.2,68.1,29.99,ESE,119,1.0,4.0,84,0.00,CLR,,0.00,WeatherDisplay:10.37,2013-09-12 06:30:00,
2013-09-12 02:45:00,73.2,68.1,29.99,North,6,1.0,4.0,84,0.00,CLR,,0.00,WeatherDisplay:10.37,2013-09-12 06:45:00,
2013-09-12 03:00:00,73.0,68.3,29.99,ENE,63,0.0,1.0,85,0.00,CLR,,0.00,WeatherDisplay:10.37,2013-09-12 07:00:00,
2013-09-12 03:15:00,73.0,68.3,29.99,SE,144,0.0,1.0,85,0.00,CLR,,0.00,WeatherDisplay:10.37,2013-09-12 07:15:00,
2013-09-12 03:30:00,72.9,68.4,29.99,SE,130,0.0,1.0,86,0.00,CLR,,0.00,WeatherDisplay:10.37,2013-09-12 07:30:00,
2013-09-12 03:45:00,72.5,68.4,29.99,SE,131,0.0,0.0,87,0.00,CLR,,0.00,WeatherDisplay:10.37,2013-09-12 07:45:00,
2013-09-12 04:00:00,72.5,68.7,29.99,ESE,115,1.0,4.0,88,0.00,CLR,,0.00,WeatherDisplay:10.37,2013-09-12 08:00:00,
2013-09-12 04:15:00,72.3,68.6,29.99,East,81,1.0,0.0,88,0.00,CLR,,0.00,WeatherDisplay:10.37,2013-09-12 08:15:00,
2013-09-12 04:30:00,72.1,68.4,29.99,SSE,165,0.0,0.0,88,0.00,CLR,,0.00,WeatherDisplay:10.37,2013-09-12 08:30:00,
2013-09-12 04:45:00,72.0,68.9,29.99,ESE,107,0.0,0.0,90,0.00,CLR,,0.00,WeatherDisplay:10.37,2013-09-12 08:45:00,
2013-09-12 05:00:00,72.1,69.4,29.99,ENE,71,0.0,2.0,91,0.00,CLR,,0.00,WeatherDisplay:10.37,2013-09-12 09:00:00,
2013-09-12 05:15:00,72.1,69.4,29.95,NE,49,1.0,1.0,91,0.00,CLR,,0.00,WeatherDisplay:10.37,2013-09-12 09:15:00,
2013-09-12 05:30:00,72.3,69.5,29.95,SE,131,0.0,0.0,91,0.00,FEW,,0.00,WeatherDisplay:10.37,2013-09-12 09:30:00,
2013-09-12 05:45:00,72.3,69.9,29.95,SE,134,1.0,2.0,92,0.00,CLR,,0.00,WeatherDisplay:10.37,2013-09-12 09:45:00,
2013-09-12 06:00:00,72.3,69.9,29.95,ESE,119,0.0,2.0,92,0.00,CLR,,0.00,WeatherDisplay:10.37,2013-09-12 10:00:00,
2013-09-12 06:15:00,72.3,69.9,29.95,SSE,165,2.0,3.0,92,0.00,CLR,,0.00,WeatherDisplay:10.37,2013-09-12 10:15:00,
2013-09-12 06:30:00,72.5,70.4,29.95,ESE,119,1.0,3.0,93,0.00,CLR,,0.00,WeatherDisplay:10.37,2013-09-12 10:30:00,
2013-09-12 06:45:00,72.5,70.4,29.95,SSE,164,1.0,5.0,93,0.00,CLR,,0.00,WeatherDisplay:10.37,2013-09-12 10:45:00,
2013-09-12 07:00:00,72.7,70.5,29.95,SE,130,2.0,5.0,93,0.00,CLR,,0.00,WeatherDisplay:10.37,2013-09-12 11:00:00,
2013-09-12 07:15:00,73.0,70.9,29.95,ESE,114,2.0,5.0,93,0.00,CLR,,0.00,WeatherDisplay:10.37,2013-09-12 11:15:00,
2013-09-12 07:30:00,73.2,70.4,29.95,ESE,123,1.0,1.0,91,0.00,CLR,,0.00,WeatherDisplay:10.37,2013-09-12 11:30:00,
2013-09-12 07:45:00,73.6,70.1,29.95,SE,134,1.0,4.0,89,0.00,CLR,,0.00,WeatherDisplay:10.37,2013-09-12 11:45:00,
2013-09-12 08:00:00,74.5,70.0,29.95,East,82,1.0,5.0,86,0.00,CLR,,0.00,WeatherDisplay:10.37,2013-09-12 12:00:00,
2013-09-12 08:15:00,75.4,69.5,29.95,SSE,163,2.0,6.0,82,0.00,CLR,,0.00,WeatherDisplay:10.37,2013-09-12 12:15:00,
2013-09-12 08:30:00,75.6,69.3,29.95,SE,134,2.0,6.0,81,0.00,CLR,,0.00,WeatherDisplay:10.37,2013-09-12 12:30:00,
2013-09-12 08:45:00,76.3,69.3,29.95,SW,235,2.0,7.0,79,0.00,CLR,,0.00,WeatherDisplay:10.37,2013-09-12 12:45:00,
2013-09-12 09:00:00,77.0,68.9,29.95,South,181,3.0,6.0,76,0.00,CLR,,0.00,WeatherDisplay:10.37,2013-09-12 13:00:00,
2013-09-12 09:15:00,78.3,68.9,29.95,NNE,24,5.0,6.0,73,0.00,CLR,,0.00,WeatherDisplay:10.37,2013-09-12 13:15:00,
2013-09-12 09:30:00,77.5,68.6,29.95,SE,126,2.0,3.0,74,0.00,CLR,,0.00,WeatherDisplay:10.37,2013-09-12 13:30:00,
2013-09-12 09:45:00,78.3,68.9,29.95,South,171,0.0,2.0,73,0.00,CLR,,0.00,WeatherDisplay:10.37,2013-09-12 13:45:00,
2013-09-12 10:00:00,78.4,68.7,29.93,SSE,156,2.0,5.0,72,0.00,CLR,,0.00,WeatherDisplay:10.37,2013-09-12 14:00:00,
2013-09-12 10:15:00,79.7,68.2,29.93,SSW,199,3.0,6.0,68,0.00,CLR,,0.00,WeatherDisplay:10.37,2013-09-12 14:15:00,
2013-09-12 10:30:00,81.0,68.1,29.93,West,276,3.0,8.0,65,0.00,CLR,,0.00,WeatherDisplay:10.37,2013-09-12 14:30:00,
2013-09-12 10:45:00,81.0,67.2,29.93,SSW,197,5.0,10.0,63,0.00,CLR,,0.00,WeatherDisplay:10.37,2013-09-12 14:45:00,
2013-09-12 11:00:00,82.6,67.8,29.93,SSE,165,5.0,7.0,61,0.00,CLR,,0.00,WeatherDisplay:10.37,2013-09-12 15:00:00,
2013-09-12 11:15:00,83.8,69.0,29.93,ESE,119,5.0,7.0,61,0.00,CLR,,0.00,WeatherDisplay:10.37,2013-09-12 15:15:00,
2013-09-12 11:30:00,84.2,68.3,29.93,SE,138,5.0,9.0,59,0.00,CLR,,0.00,WeatherDisplay:10.37,2013-09-12 15:30:00,
2013-09-12 11:45:00,85.6,68.7,29.93,South,169,3.0,7.0,57,0.00,CLR,,0.00,WeatherDisplay:10.37,2013-09-12 15:45:00,
2013-09-12 12:00:00,86.4,68.3,29.90,SE,130,7.0,10.0,55,0.00,CLR,,0.00,WeatherDisplay:10.37,2013-09-12 16:00:00,
2013-09-12 12:15:00,88.2,68.9,29.90,ESE,112,7.0,10.0,53,0.00,CLR,,0.00,WeatherDisplay:10.37,2013-09-12 16:15:00,
2013-09-12 12:30:00,88.3,68.5,29.90,NNE,17,5.0,8.0,52,0.00,CLR,,0.00,WeatherDisplay:10.37,2013-09-12 16:30:00,
2013-09-12 12:45:00,89.1,69.1,29.90,SE,135,3.0,9.0,52,0.00,CLR,,0.00,WeatherDisplay:10.37,2013-09-12 16:45:00,
2013-09-12 13:00:00,88.9,69.5,29.90,ENE,73,6.0,9.0,53,0.00,CLR,,0.00,WeatherDisplay:10.37,2013-09-12 17:00:00,
2013-09-12 13:15:00,88.9,69.0,29.87,SE,142,8.0,12.0,52,0.00,CLR,,0.00,WeatherDisplay:10.37,2013-09-12 17:15:00,
2013-09-12 13:30:00,89.4,70.0,29.87,South,172,9.0,9.0,53,0.00,CLR,,0.00,WeatherDisplay:10.37,2013-09-12 17:30:00,
2013-09-12 13:45:00,89.2,69.3,29.87,ESE,112,8.0,10.0,52,0.00,CLR,,0.00,WeatherDisplay:10.37,2013-09-12 17:45:00,
2013-09-12 14:00:00,89.4,69.5,29.87,ENE,64,6.0,8.0,52,0.00,CLR,,0.00,WeatherDisplay:10.37,2013-09-12 18:00:00,
2013-09-12 14:15:00,88.3,68.5,29.84,SE,128,8.0,12.0,52,0.00,CLR,,0.00,WeatherDisplay:10.37,2013-09-12 18:15:00,
2013-09-12 14:30:00,88.2,68.9,29.84,SE,128,9.0,12.0,53,0.00,CLR,,0.00,WeatherDisplay:10.37,2013-09-12 18:30:00,
2013-09-12 14:45:00,88.0,68.1,29.84,ESE,105,8.0,12.0,52,0.00,CLR,,0.00,WeatherDisplay:10.37,2013-09-12 18:45:00,
2013-09-12 15:00:00,87.8,68.5,29.84,SE,138,9.0,12.0,53,0.00,CLR,,0.00,WeatherDisplay:10.37,2013-09-12 19:00:00,
2013-09-12 15:15:00,86.7,68.1,29.84,SE,141,10.0,16.0,54,0.00,CLR,,0.00,WeatherDisplay:10.37,2013-09-12 19:15:00,
2013-09-12 15:30:00,86.9,68.3,29.81,ESE,120,8.0,9.0,54,0.00,CLR,,0.00,WeatherDisplay:10.37,2013-09-12 19:30:00,
2013-09-12 15:45:00,86.0,67.4,29.81,SSE,168,8.0,13.0,54,0.00,CLR,,0.00,WeatherDisplay:10.37,2013-09-12 19:45:00,
2013-09-12 16:00:00,84.9,66.9,29.81,SSE,157,9.0,10.0,55,0.00,CLR,,0.00,WeatherDisplay:10.37,2013-09-12 20:00:00,
2013-09-12 16:15:00,84.6,66.6,29.78,ESE,107,9.0,11.0,55,0.00,CLR,,0.00,WeatherDisplay:10.37,2013-09-12 20:15:00,
2013-09-12 16:30:00,83.8,65.9,29.78,South,173,8.0,12.0,55,0.00,CLR,,0.00,WeatherDisplay:10.37,2013-09-12 20:30:00,
2013-09-12 17:00:00,82.9,65.6,29.75,ESE,109,7.0,9.0,56,0.00,CLR,,0.00,WeatherDisplay:10.37,2013-09-12 21:00:00,
2013-09-12 17:15:00,81.3,66.1,29.75,ESE,122,7.0,12.0,60,0.00,CLR,,0.00,WeatherDisplay:10.37,2013-09-12 21:15:00,
2013-09-12 17:30:00,79.9,66.2,29.75,ESE,106,9.0,12.0,63,0.00,CLR,,0.00,WeatherDisplay:10.37,2013-09-12 21:30:00,
2013-09-12 17:45:00,78.6,66.3,29.75,SE,130,9.0,12.0,66,0.00,CLR,,0.00,WeatherDisplay:10.37,2013-09-12 21:45:00,
2013-09-12 18:00:00,78.4,66.6,29.75,SSE,154,7.0,9.0,67,0.00,CLR,,0.00,WeatherDisplay:10.37,2013-09-12 22:00:00,
2013-09-12 18:15:00,78.1,67.1,29.75,ESE,123,8.0,12.0,69,0.00,CLR,,0.00,WeatherDisplay:10.37,2013-09-12 22:15:00,
2013-09-12 18:30:00,77.2,67.9,29.75,SSE,162,9.0,14.0,73,0.00,CLR,,0.00,WeatherDisplay:10.37,2013-09-12 22:30:00,
2013-09-12 18:45:00,76.6,68.1,29.75,SE,127,6.0,12.0,75,0.00,CLR,,0.00,WeatherDisplay:10.37,2013-09-12 22:45:00,
2013-09-12 19:00:00,76.1,68.4,29.75,SE,135,6.0,8.0,77,0.00,CLR,,0.00,WeatherDisplay:10.37,2013-09-12 23:00:00,
2013-09-12 19:15:00,76.1,68.7,29.75,SE,146,6.0,14.0,78,0.00,CLR,,0.00,WeatherDisplay:10.37,2013-09-12 23:15:00,
2013-09-12 19:30:00,75.7,68.8,29.75,ESE,103,6.0,7.0,79,0.00,CLR,,0.00,WeatherDisplay:10.37,2013-09-12 23:30:00,
2013-09-12 19:45:00,75.6,68.6,29.75,ENE,76,2.0,5.0,79,0.00,CLR,,0.00,WeatherDisplay:10.37,2013-09-12 23:45:00,
2013-09-12 20:00:00,75.6,69.0,29.75,ESE,112,3.0,8.0,80,0.00,CLR,,0.00,WeatherDisplay:10.37,2013-09-13 00:00:00,
2013-09-12 20:15:00,75.7,68.8,29.75,ESE,103,5.0,7.0,79,0.00,FEW,,0.00,WeatherDisplay:10.37,2013-09-13 00:15:00,
2013-09-12 20:30:00,76.1,69.1,29.75,West,275,2.0,3.0,79,0.00,FEW,,0.00,WeatherDisplay:10.37,2013-09-13 00:30:00,
2013-09-12 20:45:00,76.3,68.9,29.78,WSW,249,3.0,6.0,78,0.00,SCT,,0.00,WeatherDisplay:10.37,2013-09-13 00:45:00,
2013-09-12 21:00:00,75.6,67.8,29.78,WNW,286,6.0,13.0,77,0.00,BKN,,0.00,WeatherDisplay:10.37,2013-09-13 01:00:00,
2013-09-12 21:15:00,73.9,69.1,29.78,WNW,303,6.0,13.0,85,0.03,RA,,0.03,WeatherDisplay:10.37,2013-09-13 01:15:00,
2013-09-12 21:30:00,72.9,69.8,29.75,SW,220,0.0,0.0,90,0.03,RA,,0.06,WeatherDisplay:10.37,2013-09-13 01:30:00,
2013-09-12 21:45:00,72.9,70.7,29.75,SW,220,0.0,0.0,93,0.03,RA,,0.09,WeatherDisplay:10.37,2013-09-13 01:45:00,
2013-09-12 22:00:00,72.5,71.3,29.75,North,350,0.0,0.0,96,0.03,RA,,0.11,WeatherDisplay:10.37,2013-09-13 02:00:00,
2013-09-12 22:15:00,72.3,71.4,29.75,North,350,0.0,0.0,97,0.01,RA,,0.13,WeatherDisplay:10.37,2013-09-13 02:15:00,
2013-09-12 22:30:00,72.1,70.9,29.75,South,180,0.0,0.0,96,0.01,OVC,,0.14,WeatherDisplay:10.37,2013-09-13 02:30:00,
2013-09-12 22:45:00,72.1,71.2,29.75,South,180,0.0,0.0,97,0.01,OVC,,0.16,WeatherDisplay:10.37,2013-09-13 02:45:00,
2013-09-12 23:00:00,72.1,71.8,29.75,ESE,105,1.0,2.0,99,0.01,OVC,,0.17,WeatherDisplay:10.37,2013-09-13 03:00:00,
2013-09-12 23:15:00,72.0,72.0,29.75,ESE,105,0.0,0.0,100,0.01,OVC,,0.18,WeatherDisplay:10.37,2013-09-13 03:15:00,
2013-09-12 23:30:00,71.8,71.8,29.75,ESE,105,0.0,1.0,100,0.00,OVC,,0.18,WeatherDisplay:10.37,2013-09-13 03:30:00,
2013-09-12 23:45:00,72.0,72.0,29.75,ESE,116,0.0,1.0,100,0.00,OVC,,0.18,WeatherDisplay:10.37,2013-09-13 03:45:00,